Showing default

ESSA 5, 2757

Orbit data source: Space-Track

ESSA 5, 2757 is a payload satellite owned by ESSA (US) in SSO that was launched on Thu, 20 Apr 1967 UTC via a THOR DELTA E launch vehicle from the Air Force Western Test Range (AFWTR). Payload-class satellites include a variety of spacecraft equipped with specific instruments for various scientific and technological missions. These include communications satellites like Starlink; space stations such as the ISS; scientific satellites like the Hubble; Earth observation satellites from companies like Planet Labs, Umbra, and HawkEye 360; GPS; miniature CubeSats for education and research; and military/defense satellites.

Loading next visibility...
Identifier
2757, 1967-036A
Orbit
SSO
Country
Flag of USUS
Related business
Manufacturer
RCA/East Windsor
Mission
Non-operational spacecraft
Bus & Motor
TIROS I, Unknown motor
Mass
147 kg wet, 147 kg dry
Launch date (UTC)
1967-04-20 (58 years ago)
Launch vehicle
THOR DELTA E
Launch site
Air Force Western Test Range (AFWTR)
Object type
Payload
Rocket body
Debris
Shape & HBR
Unknown
Radar Cross Section
Medium (>0.1 m² and <1 m²)

Expand to show TLE details & history
Last TLE update: 15 hours ago

TLE from 15 hours ago
0 ESSA 5
1 02757U 67036A   25286.97097891 -.00000028  00000-0  10288-3 0  9999
2 02757 101.9763  95.1765 0042864  15.7179 138.6307 12.68538211707758
Epoch: 2025-10-13T23:18Z
TLE epoch observation values (Epoch: 2025-10-13T23:18:12.577Z)
Latitude
24.76708°
Longitude
-91.55344°
Altitude
1,415.656 km
Speed
7.143 km/s
True Right ascension
18h 43m 03s
True Declination
24° 38' 51"
Sunlit
Object was in daylight at epoch
Visualization orbit readout
Latitude
Unknown
Longitude
Unknown
Altitude
Unknown
Speed
Unknown
Apparent Right ascension
Unknown
Apparent Declination
Unknown
Sunlit
N/A
Visualization observer readout
Local Sidereal Time
08:22:38
Azimuth
Unknown
Elevation
Unknown
Doppler factor
Unknown
Orbital elements
Apogee altitude
1,418.714 km
Perigee altitude
1,352.159 km
Semi-major axis
7,763.573 km
Eccentricity
0.00429
Inclination
101.9763°
RAAN
95.1765°
Arg. of periapsis
15.7179°
True anomaly
138.95403°
Mean anomaly
138.6307°
Eccentric anomaly
138.79249°
Mean motion
3.17286 °/min
Orbital period
113.46 mins
BSTAR
0.00010288
Loading maneuver chart data...
Computing Atmospheric mass density...
Loading historical data...
Loading historical data...
Loading historical data...
Loading historical data...
Loading historical data...
Loading historical data...
Loading historical data...
Other satellites on launch #36 in the year 1967 (1967-04-20 UTC)

Documentation

Showing up to 5 results
|